Weather Roundup
Issued by NWS

Home | Current Version | Previous Version | Graphics & Text | Print | Product List | Glossary Off
Versions: 1 2 3 4 5 6 7 8 9 10 11 12 13 14 15 16 17 18 19 20 21 22 23 24 25 26 27 28 29 30 31 32 33 34 35 36 37 38 39 40 41 42 43 44 45 46 47 48 49 50

000
NZUS93 KARX 282210
HRRWXR

CURRENT HOURLY OBSERVATIONS ACROSS
MUCH OF THE UPPER MISSISSIPPI VALLEY
NATIONAL WEATHER SERVICE LA CROSSE WI
500 PM CDT SUN AUG 28 2016


...SOUTHEAST MINNESOTA...


CITY           SKY/WX    TMP DP  RH WIND       PRES   REMARKS
ROCHESTER      MOSUNNY   82  69  64 S6        30.14F
ROCHESTER/MAYO CLOUDY    82  66  58 SE7       30.13S
WINONA         MOSUNNY   79  68  69 SE8       30.13F
AUSTIN         MOSUNNY   81  68  65 SW8       30.12S
ALBERT LEA     SUNNY     84  66  54 SW8       30.11S
DODGE CENTER   SUNNY     82  66  57 S6        30.13S
PRESTON        CLOUDY    81  67  63 SE5       30.15S
OWATONNA       MOSUNNY   82  66  57 SE7       30.11F
FARIBAULT      MOSUNNY   82  70  65 S6        30.11F
$$

...ELSEWHERE IN MINNESOTA...


CITY           SKY/WX    TMP DP  RH WIND       PRES   REMARKS
MINNEAPOLIS    MOSUNNY   84  66  54 S9        30.09F
INTNL FALLS    SUNNY     74  63  68 SE9       30.10S
DULUTH         MOSUNNY   73  64  73 SE8       30.15S
RED WING       MOSUNNY   82  66  57 SE7       30.09F
REDWOOD FALLS  SUNNY     85  71  63 S18       30.04F HX  90
MANKATO        MOSUNNY   82  68  61 S9        30.09S
WORTHINGTON    MOSUNNY   85  74  69 S9        30.08S HX  92
FAIRMONT       SUNNY     84  70  62 S10       30.09F
$$

...SOUTHWEST WISCONSIN...


CITY           SKY/WX    TMP DP  RH WIND       PRES   REMARKS
LA CROSSE      SUNNY     82  69  64 E8        30.13F
PRAIRIE DU CHI MOSUNNY   83  67  57 CALM      30.12S
BOSCOBEL       MOSUNNY   83  72  69 E6        30.13F
LONE ROCK      SUNNY     80  71  74 E6        30.16F
PLATTEVILLE    SUNNY     84  72  67 E6        30.14F
FORT MC COY    MOSUNNY   79  66  64 SE6       30.17S
CAMP DOUGLAS   PTSUNNY   79  68  69 SE7       30.18S
MAUSTON-NEW LI CLOUDY    79  68  69 CALM      30.17S
VIROQUA        FAIR      77  69  76 E5        30.17S
WIS DELLS      MOSUNNY   77  67  70 SE5       30.18S
$$

...ELSEWHERE IN WISCONSIN...


CITY           SKY/WX    TMP DP  RH WIND       PRES   REMARKS
MILWAUKEE      MOSUNNY   75  66  73 E9        30.20F
MADISON        PTSUNNY   78  69  73 E8        30.17S
GREEN BAY      SUNNY     80  65  59 CALM      30.18S
EAU CLAIRE     SUNNY     80  65  59 S7        30.14F
BLACK RVR FLS  FAIR      80  64  58 S5        30.15F
MEDFORD        MOSUNNY   74  64  69 S5        30.19S
WAUSAU         SUNNY     77  63  61 S5        30.17F
WIS RAPIDS     SUNNY     80  65  59 SW8       30.19F
MARSHFIELD     MOSUNNY   78  63  59 S5        30.18S
RICE LAKE      SUNNY     77  64  63 S6        30.17F
$$

...NORTHEAST IOWA...


CITY           SKY/WX    TMP DP  RH WIND       PRES   REMARKS
WATERLOO       MOSUNNY   84  71  65 SE8       30.10R
DUBUQUE        MOSUNNY   82  70  66 E8        30.14F
DECORAH        CLOUDY    81  72  74 VRB5      30.13F
MASON CITY     PTSUNNY   83  72  69 SE7       30.13S
CHARLES CITY   MOSUNNY   82  73  74 SE6G14    30.13S
OELWEIN        MOSUNNY   84  73  70 SE7       30.14R HX  91
$$

...ELSEWHERE IN IOWA...


CITY           SKY/WX    TMP DP  RH WIND       PRES   REMARKS
DES MOINES     CLOUDY    85  74  69 SE9       30.09R HX  92
IOWA CITY      PTSUNNY   86  71  60 S7        30.11F HX  91
FORT DODGE     MOSUNNY   84  70  61 SE6       30.09S
MARSHALLTOWN   CLOUDY    85  73  67 SE8       30.10S HX  91
CEDAR RAPIDS   CLOUDY    84  74  71 E6        30.11F HX  91
$$

...NORTHERN ILLINOIS...


CITY           SKY/WX    TMP DP  RH WIND       PRES   REMARKS
CHICAGO-OHARE  CLOUDY    79  68  69 E9        30.17S
CHICAGO-MIDWAY CLOUDY    80  68  66 E8        30.16F
MOLINE         CLOUDY    78  70  76 SE16G23   30.11S THUNDER
ROCKFORD       MOSUNNY   86  67  52 SE5       30.16F
PEORIA         PTSUNNY   76  71  85 E16       30.16R
$$

NOTE: "FAIR" INDICATES FEW OR NO CLOUDS BELOW 12,000 FEET WITH NO
SIGNIFICANT WEATHER AND/OR OBSTRUCTIONS TO VISIBILITY. WIND
SPEEDS ARE IN MILES-PER-HOUR.




USA.gov is the U.S. government's official web portal to all federal, state and local government web resources and services.